This is the latest recevied weather packets stored in our database for station/object N5ZP. If no packets are shown the sender has not sent any weather packets the latest 1 day(s).
| Time | Temp. | Humidity | Pressure | Rain* | Wind** | Luminosity | Snow |
|---|---|---|---|---|---|---|---|
| 1778006962 | 31.67° C | 55% | 1001.8 hPa | 0 mm | 2.68 m/s, 195° | 373 W/m² | - |
| 1778006659 | 31.11° C | 58% | 1001.9 hPa | 0 mm | 2.68 m/s, 194° | 615 W/m² | - |
| 1778006356 | 31.11° C | 58% | 1001.9 hPa | 0 mm | 2.68 m/s, 194° | 615 W/m² | - |
| 1778006053 | 30.56° C | 58% | 1001.9 hPa | 0 mm | 1.79 m/s, 230° | 421 W/m² | - |
| 1778005749 | 30.56° C | 58% | 1001.9 hPa | 0 mm | 1.79 m/s, 230° | 421 W/m² | - |
| 1778005446 | 30.56° C | 57% | 1001.8 hPa | 0 mm | 2.68 m/s, 190° | 478 W/m² | - |
| 1778005142 | 30.56° C | 58% | 1002 hPa | 0 mm | 1.34 m/s, 235° | 386 W/m² | - |
| 1778004840 | 30.56° C | 58% | 1002.1 hPa | 0 mm | 2.24 m/s, 210° | 484 W/m² | - |
| 1778004537 | 30.56° C | 58% | 1001.8 hPa | 0 mm | 1.79 m/s, 204° | 515 W/m² | - |
| 1778004233 | 30.56° C | 57% | 1002.2 hPa | 0 mm | 0.89 m/s, 193° | 415 W/m² | - |
| 1778003930 | 30.56° C | 59% | 1002.2 hPa | 0 mm | 1.79 m/s, 183° | 538 W/m² | - |
| 1778003626 | 30° C | 58% | 1002.1 hPa | 0 mm | 2.68 m/s, 193° | 460 W/m² | - |
| 1778003323 | 30.56° C | 57% | 1002.1 hPa | 0 mm | 1.79 m/s, 194° | 379 W/m² | - |
| 1778003020 | 31.11° C | 56% | 1002.2 hPa | 0 mm | 3.58 m/s, 200° | 417 W/m² | - |
| 1778002716 | 30.56° C | 59% | 1001.8 hPa | 0 mm | 1.79 m/s, 216° | 572 W/m² | - |
| 1778002413 | 30.56° C | 58% | 1002 hPa | 0 mm | 2.68 m/s, 238° | 676 W/m² | - |
| 1778002110 | 30.56° C | 57% | 1001.9 hPa | 0 mm | 2.68 m/s, 212° | 400 W/m² | - |
| 1778001808 | 30.56° C | 57% | 1002.1 hPa | 0 mm | 2.24 m/s, 214° | 410 W/m² | - |
| 1778001502 | 30.56° C | 56% | 1002.1 hPa | 0 mm | 1.79 m/s, 194° | 689 W/m² | - |
| 1778001199 | 31.11° C | 57% | 1001.8 hPa | 0 mm | 1.79 m/s, 183° | 579 W/m² | - |
| 1778000895 | 30.56° C | 60% | 1001.8 hPa | 0 mm | 0.45 m/s, 207° | 585 W/m² | - |
| 1778000593 | 30.56° C | 60% | 1002 hPa | 0 mm | 1.34 m/s, 221° | 564 W/m² | - |
| 1778000288 | 30° C | 61% | 1002 hPa | 0 mm | 1.34 m/s, 202° | 564 W/m² | - |
| 1777999984 | 30° C | 60% | 1001.9 hPa | 0 mm | 1.79 m/s, 195° | 466 W/m² | - |
| 1777999679 | 30° C | 62% | 1002.2 hPa | 0 mm | 0.89 m/s, 189° | 448 W/m² | - |
* Rain latest hour (hover to see other rain measurements)
** Current wind speed in m/s (hover to see current wind gust speed)